[[{"header":{"parameterUnit":"m.s-1","parameterCategory":1,"la1":30.2991,"la2":30.254,"lo1":-89.0895,"lo2":-89.0444,"dy":0.0017,"dx":0.0017,"nx":28,"ny":28,"refTime":"2024-02-03T03:00:00:Z","depth":0,"parameterNumber":2,"parameterNumberName":"U-component_of_WINDS"},"data":[0,0,0,0,0,0,0,0,0,0,0,0,0,0,0,0,0,0,0,0,0,0,0,0,0,0,0,0,0,0,0,0,0,0,0,0,0,0,0,0,0,0,0,0,0,0,0,0,0,0,0,0,0,0,0,0,0,0,-0.6935,-0.6934,0,-0.6869,-0.6868,-0.6867,-0.6806,-0.6805,-0.6804,-0.6803,-0.6735,-0.6734,-0.6733,0,0,0,0,0,0,0,0,0,0,0,0,0,-0.7007,-0.7006,-0.6935,-0.6934,-0.6933,-0.6869,-0.6868,-0.6867,-0.6806,-0.6805,-0.6804,-0.6803,-0.6735,-0.6734,-0.6732,0,0,0,0,0,0,0,0,0,0,0,0,0,-0.6962,-0.7006,-0.6935,-0.6895,-0.6891,-0.6869,-0.6868,-0.6867,-0.6806,-0.6805,-0.6804,-0.6803,-0.6736,-0.6734,-0.6732,-0.6745,0,0,-0.6727,-0.6726,0,0,0,0,0,0,0,0,-0.6965,-0.6959,-0.6902,-0.6898,-0.6893,-0.6844,-0.6868,-0.6826,-0.6806,-0.6838,-0.6803,-0.6802,-0.6772,-0.6767,-0.6757,-0.6741,-0.6739,-0.6727,-0.6726,-0.6725,-0.6725,0,0,0,0,0,0,0,-0.6968,-0.6962,-0.6909,-0.6901,-0.6895,-0.688,-0.6872,-0.686,-0.6812,-0.6835,-0.6831,-0.6824,-0.6769,-0.6759,-0.6755,-0.6738,-0.6727,-0.6725,-0.6724,-0.6724,-0.6729,-0.673,0,0,0,0,0,0,-0.6977,-0.6965,-0.6911,-0.6907,-0.6927,-0.688,-0.6871,-0.6861,-0.6812,-0.6804,-0.6825,-0.6821,-0.6763,-0.6757,-0.6753,-0.6764,-0.6725,-0.6724,-0.6723,-0.6728,-0.6729,-0.673,0,0,0,0,0,0,-0.6979,-0.6973,-0.6913,-0.6935,-0.6926,-0.688,-0.6869,-0.686,-0.685,-0.6804,-0.6795,-0.6823,-0.6761,-0.6755,-0.6747,-0.6761,-0.6723,-0.6721,-0.6727,-0.6728,-0.673,-0.6787,0,0,0,0,0,0,-0.6981,-0.6974,-0.6978,-0.6935,-0.6925,-0.691,-0.687,-0.686,-0.6847,-0.6842,-0.68,-0.6792,-0.676,-0.675,-0.6746,-0.6758,-0.672,-0.6725,-0.6727,-0.6729,-0.6784,-0.6791,-0.6797,0,0,0,0,0,-0.6984,-0.6997,-0.6979,-0.6973,-0.6929,-0.691,-0.6904,-0.6867,-0.6849,-0.6853,-0.6823,-0.6794,-0.676,-0.675,-0.6744,-0.6756,-0.6724,-0.6727,-0.6729,-0.6781,-0.6789,-0.6797,0,0,0,0,0,0,-0.7042,-0.699,-0.697,-0.6969,-0.6945,-0.69,-0.6904,-0.6877,-0.6857,-0.6853,-0.6808,-0.6799,-0.6796,-0.6775,-0.6765,-0.6766,-0.6738,-0.674,-0.678,-0.6787,-0.6793,-0.6798,-0.6719,0,0,0,0,0,-0.7055,-0.7044,-0.6999,-0.7003,-0.6992,-0.695,-0.6941,-0.6914,-0.6887,-0.6876,-0.6846,-0.6821,-0.6805,-0.6795,-0.6777,-0.6781,-0.6771,-0.6786,-0.6793,-0.6798,-0.68,-0.6801,-0.6807,-0.6739,-0.6739,-0.6739,0,0,-0.7081,-0.7052,-0.7047,-0.7014,-0.6992,-0.6982,-0.6942,-0.6932,-0.6924,-0.6875,-0.6866,-0.6843,-0.6812,-0.681,-0.6808,-0.6792,-0.6817,-0.6802,-0.6806,-0.6805,-0.6804,-0.681,-0.6816,-0.6741,-0.674,-0.674,0,0,-0.7123,-0.71,-0.71,-0.708,-0.7047,-0.7019,-0.702,-0.6979,-0.6963,-0.6953,-0.6916,-0.6905,-0.6878,-0.6857,-0.6843,-0.6879,-0.6851,-0.6875,-0.6907,-0.6909,-0.6914,-0.6919,-0.6931,-0.6936,-0.6877,-0.6877,-0.6877,0,-0.716,-0.7143,-0.7104,-0.7097,-0.7084,-0.7039,-0.7039,-0.702,-0.6984,-0.6976,-0.6959,-0.6925,-0.69,-0.6893,-0.6902,-0.6892,-0.6891,-0.6879,-0.6916,-0.6921,-0.6924,-0.6936,-0.6941,-0.688,-0.688,-0.6879,-0.6879,0,-0.7189,-0.7178,-0.7183,-0.7149,-0.7136,-0.7133,-0.7093,-0.7085,-0.706,-0.7034,-0.7025,-0.6995,-0.697,-0.6967,-0.6942,-0.6957,-0.6948,-0.6925,-0.6896,-0.6934,-0.6945,-0.6949,-0.6884,-0.6883,-0.6882,-0.6882,0,0,-0.7266,-0.7211,-0.7213,-0.7198,-0.7159,-0.715,-0.7145,-0.7121,-0.7115,-0.7092,-0.7086,-0.7065,-0.7043,-0.7028,-0.7,-0.7001,-0.7032,-0.6978,-0.6976,-0.6989,-0.7046,-0.7063,-0.7069,-0.7013,-0.7014,-0.7015,-0.7048,0,-0.7301,-0.729,-0.7255,-0.7254,-0.7243,-0.7201,-0.7196,-0.7172,-0.7148,-0.7136,-0.7109,-0.7095,-0.7067,-0.7058,-0.7057,-0.7028,-0.7043,-0.7025,-0.7007,-0.7007,-0.7016,-0.7074,-0.7093,-0.7126,-0.7052,-0.7053,-0.7053,0,-0.7341,-0.7321,-0.7319,-0.7281,-0.7275,-0.7272,-0.7248,-0.7237,-0.7209,-0.7191,-0.7174,-0.7144,-0.7137,-0.711,-0.7099,-0.7088,-0.7079,-0.7064,-0.7064,-0.7061,-0.7032,-0.7072,-0.7136,-0.7141,-0.7059,-0.7058,-0.7058,0,-0.7397,-0.7369,-0.7364,-0.7352,-0.7308,-0.7307,-0.7289,-0.7259,-0.7248,-0.7227,-0.7219,-0.7198,-0.7186,-0.717,-0.7135,-0.7119,-0.7128,-0.7099,-0.7113,-0.7114,-0.7116,-0.7116,-0.7179,-0.7111,-0.7111,-0.7111,-0.7111,0,-0.744,-0.7441,-0.7389,-0.7386,-0.7385,-0.7346,-0.7346,-0.7323,-0.7298,-0.729,-0.7252,-0.7246,-0.72,-0.7188,-0.7161,-0.7156,-0.7151,-0.7136,-0.7129,-0.7139,-0.7141,-0.7132,-0.7129,-0.7112,-0.7112,-0.7112,-0.7111,0,-0.7502,-0.7468,-0.746,-0.7419,-0.7409,-0.741,-0.7375,-0.7371,-0.7345,-0.7335,-0.7331,-0.729,-0.7274,-0.7238,-0.7212,-0.7193,-0.7195,-0.7182,-0.7205,-0.72,-0.7217,-0.7216,-0.7275,-0.7281,-0.721,-0.7211,-0.7211,0,-0.7532,-0.7531,-0.7491,-0.7483,-0.7466,-0.7454,-0.7442,-0.7403,-0.7392,-0.736,-0.736,-0.7341,-0.7324,-0.7301,-0.7268,-0.7249,-0.7235,-0.7257,-0.7231,-0.7242,-0.7235,-0.7235,-0.7235,-0.7262,-0.7263,-0.7264,-0.7265,0,-0.7588,-0.7572,-0.7556,-0.7535,-0.7522,-0.7504,-0.7483,-0.7479,-0.7434,-0.7424,-0.7408,-0.7395,-0.7369,-0.7351,-0.7326,-0.7307,-0.7279,-0.7273,-0.7276,-0.7286,-0.7299,-0.7292,-0.722,-0.7272,-0.7271,-0.7271,-0.727,-0.727,-0.7635,-0.7633,-0.7604,-0.7588,-0.7569,-0.755,-0.7544,-0.7518,-0.7504,-0.748,-0.7457,-0.7443,-0.7415,-0.738,-0.7362,-0.7351,-0.7336,-0.734,-0.734,-0.7342,-0.7346,-0.7302,-0.7346,-0.7346,-0.7345,-0.7345,-0.7345,0,-0.769,-0.7669,-0.7655,-0.7628,-0.7615,-0.759,-0.7566,-0.7558,-0.7546,-0.7522,-0.7507,-0.7488,-0.747,-0.7437,-0.7417,-0.7414,-0.74,-0.741,-0.7409,-0.7405,-0.736,-0.736,-0.7421,-0.7421,-0.7421,-0.7421,-0.7421,-0.7421,-0.7717,-0.7711,-0.7691,-0.7676,-0.7655,-0.7641,-0.763,-0.7613,-0.7594,-0.7575,-0.756,-0.7539,-0.7512,-0.7489,-0.7472,-0.7463,-0.7457,-0.747,-0.7457,-0.7415,-0.7408,-0.7401,-0.7401,-0.7469,-0.7469,-0.7503,-0.7503,-0.7503]},{"header":{"parameterUnit":"m.s-1","parameterCategory":1,"la1":30.2991,"la2":30.254,"lo1":-89.0895,"lo2":-89.0444,"dy":0.0017,"dx":0.0017,"nx":28,"ny":28,"refTime":"2024-02-03T03:00:00:Z","depth":0,"parameterNumber":3,"parameterNumberName":"V-component_of_WINDS"},"data":[0,0,0,0,0,0,0,0,0,0,0,0,0,0,0,0,0,0,0,0,0,0,0,0,0,0,0,0,0,0,0,0,0,0,0,0,0,0,0,0,0,0,0,0,0,0,0,0,0,0,0,0,0,0,0,0,0,0,1.3692,1.3693,0,1.3725,1.3725,1.3726,1.3737,1.3736,1.3736,1.3736,1.377,1.3771,1.3772,0,0,0,0,0,0,0,0,0,0,0,0,0,1.3641,1.3642,1.3692,1.3693,1.3693,1.3725,1.3725,1.3726,1.3737,1.3736,1.3736,1.3736,1.377,1.3771,1.3772,0,0,0,0,0,0,0,0,0,0,0,0,0,1.3667,1.3642,1.3692,1.3702,1.3704,1.3725,1.3725,1.3726,1.3737,1.3736,1.3736,1.3736,1.3769,1.3771,1.3772,1.3785,0,0,1.3777,1.3777,0,0,0,0,0,0,0,0,1.3666,1.3669,1.37,1.3702,1.3703,1.3726,1.3719,1.3746,1.3737,1.3724,1.3736,1.3736,1.3756,1.3758,1.3765,1.3787,1.3789,1.3777,1.3778,1.3778,1.3779,0,0,0,0,0,0,0,1.3664,1.3668,1.3705,1.3701,1.3703,1.3706,1.3709,1.3724,1.3741,1.3725,1.3726,1.373,1.3756,1.3763,1.3766,1.3789,1.3777,1.3778,1.3779,1.378,1.3825,1.3825,0,0,0,0,0,0,1.366,1.3666,1.3704,1.3706,1.3683,1.3707,1.3711,1.3719,1.374,1.3743,1.373,1.373,1.3761,1.3764,1.3767,1.3785,1.3778,1.378,1.3781,1.3825,1.3825,1.3825,0,0,0,0,0,0,1.3659,1.3663,1.3703,1.3686,1.3692,1.3708,1.3717,1.372,1.3727,1.3744,1.3747,1.3734,1.3761,1.3765,1.3781,1.3786,1.3781,1.3782,1.3824,1.3825,1.3825,1.382,0,0,0,0,0,0,1.3657,1.3663,1.3668,1.3686,1.3692,1.3716,1.3718,1.3721,1.3729,1.373,1.3749,1.3751,1.3761,1.3779,1.3783,1.3788,1.3783,1.3824,1.3825,1.3825,1.382,1.382,1.382,0,0,0,0,0,1.3656,1.3665,1.3668,1.3673,1.3699,1.3716,1.372,1.373,1.373,1.3735,1.3746,1.3751,1.3785,1.378,1.3785,1.3791,1.3824,1.3824,1.3825,1.3819,1.382,1.382,0,0,0,0,0,0,1.3646,1.3667,1.3671,1.3687,1.37,1.3718,1.3725,1.373,1.3744,1.3744,1.3756,1.376,1.3776,1.3785,1.3779,1.3805,1.3805,1.3806,1.3799,1.3799,1.38,1.3797,1.3784,0,0,0,0,0,1.3646,1.3658,1.3676,1.3688,1.3694,1.3709,1.3717,1.3724,1.3738,1.3743,1.3755,1.3769,1.3783,1.3791,1.3805,1.3821,1.3826,1.3827,1.3828,1.3828,1.3829,1.3839,1.384,1.3828,1.3828,1.3828,0,0,1.3646,1.3659,1.3666,1.3687,1.3697,1.371,1.3713,1.3726,1.3736,1.3745,1.3761,1.3771,1.3787,1.3803,1.3811,1.3811,1.3834,1.3829,1.3829,1.383,1.384,1.3841,1.3842,1.3828,1.3828,1.3828,0,0,1.3652,1.3662,1.3674,1.3685,1.3701,1.3711,1.3714,1.3732,1.3739,1.3755,1.3763,1.3774,1.3798,1.3809,1.3818,1.3829,1.3834,1.3833,1.3835,1.3844,1.3846,1.3846,1.3851,1.3852,1.3834,1.3834,1.3834,0,1.3649,1.3668,1.3679,1.3692,1.3701,1.3711,1.3723,1.3733,1.3753,1.376,1.3759,1.3789,1.3801,1.382,1.3823,1.383,1.3834,1.3831,1.3844,1.3846,1.3847,1.3851,1.3853,1.3834,1.3834,1.3834,1.3834,0,1.3665,1.3678,1.3685,1.3705,1.3715,1.3727,1.3741,1.375,1.3756,1.3766,1.3783,1.3797,1.3814,1.3819,1.3826,1.384,1.384,1.3842,1.3842,1.3847,1.3852,1.3854,1.3834,1.3834,1.3834,1.3834,0,0,1.3665,1.3691,1.3693,1.3703,1.3722,1.3733,1.3746,1.3763,1.3771,1.3784,1.3796,1.3816,1.3818,1.3828,1.3836,1.3845,1.3853,1.3846,1.3846,1.3847,1.3871,1.387,1.3871,1.3857,1.3857,1.3858,1.387,0,1.3673,1.3697,1.3708,1.3727,1.374,1.375,1.3761,1.3775,1.3784,1.3797,1.3808,1.3822,1.3824,1.383,1.3839,1.385,1.3858,1.385,1.3868,1.3869,1.3864,1.3874,1.3872,1.3883,1.3872,1.3872,1.3872,0,1.3686,1.3701,1.3721,1.374,1.3746,1.3756,1.3773,1.3784,1.38,1.3807,1.3818,1.3826,1.3841,1.384,1.3861,1.3854,1.3863,1.387,1.3871,1.3873,1.3871,1.3877,1.3887,1.3888,1.3875,1.3875,1.3875,0,1.3685,1.3709,1.3725,1.3733,1.3755,1.3762,1.3771,1.3787,1.3797,1.3811,1.3818,1.3834,1.3843,1.3856,1.3868,1.3866,1.3888,1.3887,1.3894,1.3894,1.3898,1.3898,1.391,1.3903,1.3903,1.3903,1.3903,0,1.3694,1.3706,1.3725,1.3734,1.3749,1.3762,1.3776,1.3786,1.38,1.3812,1.3821,1.3833,1.3848,1.3861,1.3871,1.3887,1.3891,1.3897,1.3899,1.3896,1.3895,1.3902,1.3902,1.3904,1.3904,1.3904,1.3903,0,1.3695,1.3708,1.3725,1.3745,1.3751,1.376,1.3777,1.3787,1.3798,1.3813,1.3818,1.3834,1.3851,1.3864,1.3885,1.3892,1.3909,1.3911,1.3904,1.3905,1.3911,1.391,1.3928,1.3931,1.3922,1.3922,1.3922,0,1.3699,1.3709,1.373,1.3739,1.3748,1.3763,1.3773,1.3786,1.3796,1.3815,1.3823,1.384,1.3855,1.388,1.3895,1.3911,1.3914,1.3919,1.3917,1.3914,1.3915,1.3914,1.3916,1.392,1.392,1.392,1.392,0,1.3706,1.3713,1.3727,1.3743,1.3755,1.3769,1.3783,1.379,1.3806,1.3817,1.3834,1.3845,1.3867,1.3884,1.3902,1.3913,1.3919,1.3921,1.3923,1.392,1.3915,1.3918,1.3905,1.392,1.392,1.392,1.392,1.392,1.371,1.3719,1.3736,1.3751,1.3763,1.3776,1.3787,1.3799,1.3814,1.3833,1.384,1.3857,1.3874,1.3899,1.391,1.3924,1.3924,1.3928,1.3929,1.393,1.3929,1.3913,1.3927,1.3927,1.3927,1.3927,1.3927,0,1.3717,1.3729,1.3743,1.3763,1.3775,1.378,1.3796,1.3807,1.3822,1.3837,1.3851,1.3871,1.3888,1.3904,1.3921,1.393,1.3933,1.3934,1.3934,1.3936,1.3928,1.3924,1.3931,1.3931,1.3931,1.3931,1.3931,1.3931,1.3723,1.3739,1.3748,1.3771,1.3782,1.38,1.3808,1.3821,1.3833,1.3855,1.3869,1.3879,1.3895,1.3914,1.393,1.3934,1.394,1.394,1.3945,1.3937,1.3937,1.3936,1.3933,1.3941,1.3941,1.3953,1.3953,1.3953]}]]